Hibbing, MN

9:39 PM CST on January 20, 2017 (GMT -0600)
Chisholm-hibbing

Weather History for KHIB - November, 2012

Change the Weather History Date:

Thursday, November 1, 2012

  Actual Average Record
Temperature  
Mean Temperature 34 °F -  
Max Temperature 37 °F 43 °F 69 °F (1990)
Min Temperature 30 °F 26 °F 8 °F (1984)
Degree Days  
Heating Degree Days 32    
Moisture  
Dew Point 26 °F    
Average Humidity 71    
Maximum Humidity 86    
Minimum Humidity 51    
Precipitation  
Precipitation 0.00 in - - ()
Sea Level Pressure  
Sea Level Pressure 30.01 in    
Wind  
Wind Speed 13 mph (NNW)    
Max Wind Speed 17 mph    
Max Gust Speed 24 mph    
Visibility 10 miles    
Events Rain    
Averages and records for this station are not official NWS values.
T = Trace of Precipitation, MM = Missing Value Source: NWS Daily Summary

Daily Weather History Graph

Daily Weather History Graph

Search for Another Location

Airport or City:

Trip Planner

Search our weather history database for the weather conditions in past years. The results will help you decide how hot, cold, wet, or windy it might be!

Date:

Astronomy

Nov. 01, 2012 Rise Set
Actual Time 7:55 AM CDT 5:53 PM CDT
Civil Twilight 7:23 AM CDT 6:25 PM CDT
Nautical Twilight 6:47 AM CDT 7:01 PM CDT
Astronomical Twilight 6:11 AM CDT 7:37 PM CDT
Moon 7:42 PM CDT (11/1) 10:37 AM CDT (11/1)
Length of Visible Light 11h 02m
Length of Day
9h 57m
Waning Gibbous, 93% of the Moon is Illuminated
Nov 1
Waning Gibbous
Nov 6
Last Quarter
Nov 13
New
Nov 20
First Quarter
Nov 28
Full

Hourly Weather History & Observations

Time (CDT) Temp. Windchill Dew Point Humidity Pressure Visibility Wind Dir Wind Speed Gust Speed Precip Events Conditions
12:26 AM 37.4 °F 31.4 °F 21.2 °F 52% 29.90 in 10.0 mi NW 8.1 mph - N/A   Overcast
12:53 AM 37.9 °F 29.2 °F 21.0 °F 51% 29.95 in 10.0 mi NNW 15.0 mph 18.4 mph N/A   Overcast
1:53 AM 36.0 °F 27.1 °F 27.0 °F 70% 29.96 in 10.0 mi NW 13.8 mph - N/A   Overcast
2:51 AM 35.6 °F 25.9 °F 28.4 °F 75% 29.92 in 10.0 mi NNW 16.1 mph - N/A   Overcast
2:53 AM 36.0 °F 26.3 °F 28.9 °F 76% 29.96 in 10.0 mi NNW 16.1 mph - N/A   Overcast
3:53 AM 35.1 °F 26.9 °F 30.9 °F 85% 29.95 in 10.0 mi NNW 11.5 mph 19.6 mph 0.00 in Rain Light Rain
4:53 AM 36.0 °F 28.5 °F 32.0 °F 86% 29.96 in 10.0 mi NW 10.4 mph - 0.00 in   Overcast
5:53 AM 36.0 °F 26.0 °F 30.9 °F 82% 29.97 in 10.0 mi NNW 17.3 mph - N/A   Overcast
6:53 AM 35.1 °F 26.4 °F 30.0 °F 82% 29.97 in 10.0 mi NW 12.7 mph - 0.00 in   Overcast
7:05 AM 35.6 °F 26.2 °F 30.2 °F 81% 29.93 in 10.0 mi NW 15.0 mph - 0.00 in   Overcast
7:29 AM 35.6 °F 26.6 °F 28.4 °F 75% 29.93 in 10.0 mi NW 13.8 mph - 0.00 in   Overcast
7:53 AM 34.0 °F 24.2 °F 28.9 °F 82% 29.99 in 10.0 mi NW 15.0 mph 21.9 mph 0.00 in   Overcast
8:53 AM 34.0 °F 23.4 °F 28.0 °F 79% 30.01 in 10.0 mi NW 17.3 mph 24.2 mph 0.00 in   Overcast
10:53 AM 34.0 °F 23.4 °F 26.1 °F 73% 30.03 in 10.0 mi NW 17.3 mph - N/A   Overcast
11:53 AM 35.1 °F 25.2 °F 25.0 °F 67% 30.03 in 10.0 mi NNW 16.1 mph - N/A   Overcast
12:53 PM 35.1 °F 25.5 °F 25.0 °F 67% 30.03 in 10.0 mi NW 15.0 mph 23.0 mph N/A   Overcast
1:53 PM 36.0 °F 27.5 °F 24.1 °F 62% 30.03 in 10.0 mi NW 12.7 mph - N/A   Overcast
2:23 PM 37.4 °F 28.5 °F 24.8 °F 60% 29.97 in 10.0 mi NNW 15.0 mph 24.2 mph N/A   Overcast
2:53 PM 35.1 °F 25.9 °F 23.0 °F 61% 30.02 in 10.0 mi NNW 13.8 mph - N/A   Mostly Cloudy
3:18 PM 35.6 °F 25.9 °F 23.0 °F 60% 29.98 in 10.0 mi NNW 16.1 mph - N/A   Overcast
3:53 PM 34.0 °F 24.2 °F 23.0 °F 64% 30.04 in 10.0 mi NW 15.0 mph 21.9 mph N/A   Overcast
4:53 PM 33.1 °F 24.4 °F 21.9 °F 64% 30.06 in 10.0 mi North 11.5 mph - N/A   Overcast
5:53 PM 32.0 °F 22.5 °F 23.0 °F 69% 30.09 in 10.0 mi NNW 12.7 mph - N/A   Overcast
6:53 PM 32.0 °F 22.1 °F 23.0 °F 69% 30.09 in 10.0 mi NNW 13.8 mph - N/A   Overcast
7:53 PM 32.0 °F 22.5 °F 23.0 °F 69% 30.09 in 10.0 mi NNW 12.7 mph - N/A   Overcast
8:53 PM 30.9 °F 20.7 °F 23.0 °F 72% 30.10 in 10.0 mi NNW 13.8 mph 23.0 mph N/A   Overcast
9:53 PM 30.9 °F 20.7 °F 24.1 °F 76% 30.11 in 10.0 mi North 13.8 mph - N/A   Overcast
10:53 PM 30.9 °F 22.8 °F 23.0 °F 72% 30.12 in 10.0 mi North 9.2 mph - N/A   Overcast
11:53 PM 30.0 °F 21.1 °F 21.9 °F 72% 30.13 in 10.0 mi North 10.4 mph - N/A   Overcast